| time (UTC) | temp F | wind direction | speed MPH | gust MPH | rain 1hr in | rain 24hr in | rain mn in | humidity % | barometer mb |
| 20260509064608 | 45 | 206 | 0.0 | 0.0 | 0.00 | 0.00 | 0.00 | 59 | 1009.3 |
| 20260509064106 | 45 | 206 | 0.0 | 0.0 | 0.00 | 0.00 | 0.00 | 59 | 1009.5 |
| 20260509063602 | 45 | 206 | 0.0 | 0.0 | 0.00 | 0.00 | 0.00 | 60 | 1009.4 |
| 20260509063059 | 45 | 206 | 0.0 | 0.0 | 0.00 | 0.00 | 0.00 | 58 | 1009.6 |
| 20260509062556 | 45 | 206 | 0.0 | 0.0 | 0.00 | 0.00 | 0.00 | 57 | 1009.7 |
| 20260509062054 | 45 | 206 | 0.0 | 0.0 | 0.00 | 0.00 | 0.00 | 56 | 1009.8 |
| 20260509061550 | 45 | 206 | 0.0 | 0.0 | 0.00 | 0.00 | 0.00 | 56 | 1009.9 |
| 20260509061047 | 45 | 206 | 0.0 | 0.0 | 0.00 | 0.00 | 0.00 | 55 | 1010.0 |
| 20260509060545 | 45 | 206 | 0.0 | 0.0 | 0.00 | 0.00 | 0.00 | 55 | 1009.9 |
| 20260509060040 | 44 | 206 | 0.0 | 0.0 | 0.00 | 0.00 | 0.00 | 55 | 1009.8 |
| 20260509055536 | 44 | 206 | 0.0 | 0.0 | 0.00 | 0.00 | 0.00 | 57 | 1010.2 |
| 20260509055032 | 44 | 206 | 0.0 | 0.0 | 0.00 | 0.00 | 0.00 | 57 | 1010.2 |
| 20260509054529 | 44 | 206 | 0.0 | 0.0 | 0.00 | 0.00 | 0.00 | 55 | 1010.1 |
| 20260509054027 | 43 | 206 | 0.0 | 0.0 | 0.00 | 0.00 | 0.00 | 56 | 1010.2 |
| 20260509053525 | 42 | 207 | 0.0 | 0.0 | 0.00 | 0.00 | 0.00 | 59 | 1010.2 |
| 20260509053016 | 42 | 207 | 0.0 | 0.0 | 0.00 | 0.00 | 0.00 | 60 | 1010.3 |
| 20260509052514 | 42 | 207 | 0.0 | 0.0 | 0.00 | 0.00 | 0.00 | 60 | 1010.3 |
| 20260509052012 | 42 | 207 | 0.0 | 0.0 | 0.00 | 0.00 | 0.00 | 59 | 1010.4 |
| 20260509051509 | 42 | 207 | 0.0 | 0.0 | 0.00 | 0.00 | 0.00 | 61 | 1010.5 |
| 20260509051006 | 41 | 207 | 0.0 | 0.0 | 0.00 | 0.00 | 0.00 | 62 | 1010.5 |
| 20260509050503 | 41 | 207 | 0.0 | 0.0 | 0.00 | 0.00 | 0.00 | 62 | 1010.6 |
| 20260509045959 | 41 | 207 | 0.0 | 0.0 | 0.00 | 0.00 | 0.00 | 63 | 1010.5 |
| 20260509045457 | 41 | 207 | 0.0 | 0.0 | 0.00 | 0.00 | 0.00 | 62 | 1010.7 |
| 20260509044954 | 41 | 207 | 0.0 | 0.0 | 0.00 | 0.00 | 0.00 | 62 | 1010.7 |
| 20260509044452 | 41 | 207 | 0.0 | 0.0 | 0.00 | 0.00 | 0.00 | 61 | 1010.7 |
| 20260509043948 | 41 | 207 | 0.0 | 0.0 | 0.00 | 0.00 | 0.00 | 60 | 1010.8 |
| 20260509043444 | 41 | 207 | 0.0 | 0.0 | 0.00 | 0.00 | 0.00 | 60 | 1010.7 |
| 20260509042939 | 42 | 207 | 0.0 | 0.0 | 0.00 | 0.00 | 0.00 | 61 | 1010.6 |
| 20260509042437 | 42 | 207 | 0.0 | 0.0 | 0.00 | 0.00 | 0.00 | 62 | 1011.0 |
| 20260509041933 | 42 | 207 | 0.0 | 0.0 | 0.00 | 0.00 | 0.00 | 65 | 1011.2 |
| 20260509041430 | 42 | 207 | 0.0 | 0.0 | 0.00 | 0.00 | 0.00 | 60 | 1011.0 |
| 20260509040928 | 42 | 207 | 0.0 | 0.0 | 0.00 | 0.00 | 0.00 | 61 | 1011.1 |
| 20260509040426 | 42 | 207 | 0.0 | 0.0 | 0.00 | 0.00 | 0.00 | 64 | 1010.8 |
| 20260509035922 | 42 | 207 | 0.0 | 0.0 | 0.00 | 0.04 | 0.04 | 62 | 1011.0 |
| 20260509035419 | 42 | 207 | 0.0 | 0.0 | 0.00 | 0.04 | 0.04 | 61 | 1011.1 |
| 20260509034916 | 43 | 207 | 0.0 | 0.0 | 0.00 | 0.04 | 0.04 | 58 | 1011.0 |
| 20260509034414 | 43 | 207 | 0.0 | 0.0 | 0.00 | 0.04 | 0.04 | 58 | 1010.8 |
| 20260509033911 | 43 | 206 | 0.0 | 0.0 | 0.00 | 0.04 | 0.04 | 55 | 1010.8 |
| 20260509033408 | 44 | 207 | 0.0 | 0.0 | 0.00 | 0.04 | 0.04 | 54 | 1011.1 |
| 20260509032904 | 44 | 206 | 0.0 | 0.0 | 0.00 | 0.04 | 0.04 | 54 | 1011.1 |
| 20260509032401 | 44 | 206 | 0.0 | 0.0 | 0.00 | 0.04 | 0.04 | 56 | 1011.1 |
| 20260509031859 | 44 | 206 | 0.0 | 0.0 | 0.00 | 0.04 | 0.04 | 53 | 1011.0 |
| 20260509031356 | 44 | 206 | 0.0 | 0.0 | 0.00 | 0.04 | 0.04 | 54 | 1011.2 |
| 20260509030854 | 44 | 206 | 0.0 | 0.0 | 0.00 | 0.04 | 0.04 | 52 | 1011.1 |
| 20260509030352 | 44 | 206 | 0.0 | 0.0 | 0.00 | 0.04 | 0.04 | 53 | 1011.0 |
| 20260509025849 | 44 | 206 | 0.0 | 0.0 | 0.00 | 0.04 | 0.04 | 52 | 1011.1 |
| 20260509025344 | 44 | 206 | 0.0 | 0.0 | 0.00 | 0.04 | 0.04 | 52 | 1011.0 |
| 20260509024839 | 44 | 206 | 0.0 | 0.0 | 0.00 | 0.04 | 0.04 | 52 | 1011.0 |
| 20260509024330 | 44 | 206 | 0.0 | 0.0 | 0.00 | 0.04 | 0.04 | 52 | 1011.2 |
| 20260509023827 | 44 | 206 | 0.0 | 0.0 | 0.00 | 0.04 | 0.04 | 52 | 1010.8 |
| 20260509023325 | 44 | 206 | 0.0 | 0.0 | 0.00 | 0.04 | 0.04 | 55 | 1011.3 |
| 20260509022821 | 44 | 207 | 0.0 | 0.0 | 0.00 | 0.04 | 0.04 | 55 | 1011.2 |
| 20260509022318 | 44 | 206 | 0.0 | 0.0 | 0.00 | 0.04 | 0.04 | 54 | 1011.2 |
| 20260509021815 | 44 | 206 | 0.0 | 0.0 | 0.00 | 0.04 | 0.04 | 54 | 1011.2 |
| 20260509021312 | 44 | 206 | 0.0 | 0.0 | 0.00 | 0.04 | 0.04 | 54 | 1011.3 |
| 20260509020810 | 44 | 206 | 0.0 | 0.0 | 0.00 | 0.04 | 0.04 | 52 | 1011.2 |
| 20260509020308 | 44 | 206 | 0.0 | 0.0 | 0.00 | 0.04 | 0.04 | 52 | 1011.3 |
| 20260509015805 | 44 | 206 | 0.0 | 0.0 | 0.00 | 0.04 | 0.04 | 51 | 1011.3 |
| 20260509015306 | 44 | 207 | 0.0 | 0.0 | 0.00 | 0.04 | 0.04 | 53 | 1011.3 |
| 20260509014759 | 44 | 207 | 0.0 | 0.0 | 0.00 | 0.04 | 0.04 | 52 | 1011.3 |
| 20260509014256 | 45 | 207 | 0.0 | 0.0 | 0.00 | 0.04 | 0.04 | 55 | 1011.3 |
| 20260509013753 | 45 | 207 | 0.0 | 0.0 | 0.00 | 0.04 | 0.04 | 55 | 1011.5 |
| 20260509013248 | 45 | 207 | 0.0 | 0.0 | 0.00 | 0.04 | 0.04 | 52 | 1011.2 |
| 20260509012745 | 45 | 207 | 0.0 | 0.0 | 0.00 | 0.04 | 0.04 | 52 | 1011.1 |
| 20260509012242 | 45 | 207 | 0.0 | 0.0 | 0.00 | 0.04 | 0.04 | 53 | 1011.3 |
| 20260509011739 | 45 | 207 | 0.0 | 0.0 | 0.00 | 0.04 | 0.04 | 51 | 1011.2 |
| 20260509011237 | 45 | 207 | 0.0 | 0.0 | 0.00 | 0.04 | 0.04 | 53 | 1010.8 |
| 20260509010735 | 46 | 207 | 0.0 | 0.0 | 0.00 | 0.04 | 0.04 | 53 | 1010.8 |
| 20260509010231 | 46 | 207 | 0.0 | 0.0 | 0.00 | 0.04 | 0.04 | 52 | 1010.7 |
| 20260509005728 | 46 | 207 | 0.0 | 0.0 | 0.00 | 0.04 | 0.04 | 52 | 1010.6 |
| 20260509005226 | 47 | 207 | 0.0 | 0.0 | 0.00 | 0.04 | 0.04 | 51 | 1010.7 |
| 20260509004720 | 47 | 207 | 0.0 | 0.0 | 0.00 | 0.04 | 0.04 | 52 | 1010.3 |
| 20260509004218 | 48 | 207 | 0.0 | 0.0 | 0.00 | 0.04 | 0.04 | 50 | 1010.5 |
| 20260509003716 | 48 | 207 | 0.0 | 0.0 | 0.00 | 0.04 | 0.04 | 49 | 1010.6 |
| 20260509003213 | 49 | 207 | 0.0 | 0.0 | 0.00 | 0.04 | 0.04 | 48 | 1010.4 |
| 20260509002710 | 50 | 207 | 0.0 | 0.0 | 0.00 | 0.04 | 0.04 | 42 | 1010.5 |
| 20260509002208 | 50 | 207 | 0.0 | 0.0 | 0.00 | 0.04 | 0.04 | 41 | 1010.4 |
| 20260509001705 | 51 | 207 | 0.0 | 0.0 | 0.00 | 0.04 | 0.04 | 40 | 1010.2 |
| 20260509001201 | 51 | 207 | 0.0 | 0.0 | 0.00 | 0.04 | 0.04 | 40 | 1010.4 |
| 20260509000659 | 52 | 206 | 0.0 | 0.0 | 0.00 | 0.04 | 0.04 | 38 | 1010.3 |
| 20260509000156 | 52 | 207 | 0.0 | 0.0 | 0.00 | 0.04 | 0.04 | 36 | 1010.4 |
| 20260508235653 | 53 | 206 | 0.0 | 0.0 | 0.00 | 0.04 | 0.04 | 34 | 1010.4 |
| 20260508235149 | 54 | 206 | 0.0 | 0.0 | 0.00 | 0.04 | 0.04 | 35 | 1010.4 |
| 20260508234646 | 54 | 207 | 3.0 | 3.0 | 0.00 | 0.04 | 0.04 | 31 | 1010.3 |
| 20260508234142 | 55 | 309 | 2.0 | 3.0 | 0.00 | 0.04 | 0.04 | 31 | 1010.3 |
| 20260508233637 | 55 | 204 | 1.0 | 2.0 | 0.00 | 0.04 | 0.04 | 30 | 1010.3 |
| 20260508233134 | 56 | 251 | 1.0 | 1.0 | 0.00 | 0.04 | 0.04 | 32 | 1010.0 |
| 20260508232631 | 56 | 258 | 2.0 | 3.0 | 0.00 | 0.04 | 0.04 | 31 | 1010.1 |
| 20260508232128 | 56 | 202 | 2.0 | 3.0 | 0.00 | 0.04 | 0.04 | 31 | 1010.0 |
| 20260508231625 | 55 | 306 | 2.0 | 3.0 | 0.00 | 0.04 | 0.04 | 34 | 1010.1 |
| 20260508231123 | 54 | 213 | 1.0 | 1.0 | 0.00 | 0.04 | 0.04 | 36 | 1010.1 |
| 20260508230618 | 54 | 196 | 2.0 | 2.0 | 0.00 | 0.04 | 0.04 | 36 | 1010.0 |
| 20260508230115 | 55 | 212 | 0.0 | 1.0 | 0.00 | 0.04 | 0.04 | 37 | 1010.2 |
| 20260508225613 | 56 | 193 | 0.0 | 1.0 | 0.00 | 0.04 | 0.04 | 37 | 1009.9 |
| 20260508225109 | 56 | 279 | 3.0 | 4.0 | 0.00 | 0.04 | 0.04 | 37 | 1009.9 |
| 20260508224607 | 57 | 200 | 0.0 | 0.0 | 0.00 | 0.04 | 0.04 | 37 | 1009.9 |
| 20260508224104 | 56 | 202 | 1.0 | 1.0 | 0.00 | 0.04 | 0.04 | 39 | 1010.0 |
| 20260508223602 | 57 | 224 | 1.0 | 2.0 | 0.00 | 0.04 | 0.04 | 39 | 1010.0 |
| 20260508223059 | 57 | 269 | 3.0 | 3.0 | 0.00 | 0.04 | 0.04 | 36 | 1010.1 |
| 20260508222556 | 57 | 212 | 1.0 | 1.0 | 0.00 | 0.04 | 0.04 | 36 | 1010.1 |
| 20260508222053 | 57 | 196 | 0.0 | 1.0 | 0.00 | 0.04 | 0.04 | 38 | 1010.0 |
| 20260508221549 | 57 | 197 | 0.0 | 0.0 | 0.00 | 0.04 | 0.04 | 36 | 1010.0 |
| 20260508221045 | 57 | 221 | 0.0 | 1.0 | 0.00 | 0.04 | 0.04 | 38 | 1009.9 |
| 20260508220542 | 57 | 330 | 1.0 | 2.0 | 0.00 | 0.04 | 0.04 | 39 | 1009.9 |
| 20260508220038 | 59 | 250 | 4.0 | 4.0 | 0.00 | 0.04 | 0.04 | 37 | 1010.1 |
| 20260508215535 | 59 | 205 | 1.0 | 1.0 | 0.00 | 0.04 | 0.04 | 36 | 1009.9 |
| 20260508215032 | 58 | 200 | 0.0 | 0.0 | 0.00 | 0.04 | 0.04 | 37 | 1010.0 |
| 20260508214530 | 58 | 199 | 0.0 | 0.0 | 0.00 | 0.04 | 0.04 | 36 | 1010.0 |
| 20260508214026 | 58 | 197 | 0.0 | 1.0 | 0.00 | 0.04 | 0.04 | 39 | 1010.0 |
| 20260508213523 | 58 | 214 | 1.0 | 2.0 | 0.00 | 0.04 | 0.04 | 40 | 1010.0 |
| 20260508213019 | 57 | 198 | 0.0 | 0.0 | 0.00 | 0.04 | 0.04 | 37 | 1010.2 |
| 20260508212515 | 59 | 209 | 0.0 | 1.0 | 0.00 | 0.04 | 0.04 | 41 | 1010.0 |
| 20260508212011 | 57 | 203 | 0.0 | 0.0 | 0.00 | 0.04 | 0.04 | 39 | 1009.9 |
| 20260508211502 | 55 | 282 | 1.0 | 2.0 | 0.00 | 0.04 | 0.04 | 41 | 1010.2 |
| 20260508210958 | 56 | 199 | 1.0 | 2.0 | 0.00 | 0.04 | 0.04 | 40 | 1010.2 |
| 20260508210455 | 57 | 189 | 1.0 | 2.0 | 0.00 | 0.04 | 0.04 | 40 | 1010.2 |
| 20260508205951 | 57 | 223 | 2.0 | 2.0 | 0.00 | 0.04 | 0.04 | 40 | 1010.1 |
| 20260508205449 | 56 | 207 | 1.0 | 1.0 | 0.00 | 0.04 | 0.04 | 41 | 1010.1 |
| 20260508204945 | 58 | 254 | 1.0 | 1.0 | 0.00 | 0.04 | 0.04 | 37 | 1010.3 |
| 20260508204443 | 57 | 202 | 0.0 | 1.0 | 0.00 | 0.04 | 0.04 | 38 | 1010.5 |
| 20260508203937 | 56 | 191 | 0.0 | 0.0 | 0.00 | 0.04 | 0.04 | 42 | 1010.5 |
| 20260508203434 | 55 | 213 | 1.0 | 1.0 | 0.00 | 0.04 | 0.04 | 42 | 1010.3 |
| 20260508202930 | 56 | 138 | 2.0 | 4.0 | 0.00 | 0.04 | 0.04 | 41 | 1010.6 |
| 20260508202428 | 56 | 230 | 1.0 | 2.0 | 0.00 | 0.04 | 0.04 | 40 | 1010.4 |
| 20260508201924 | 57 | 268 | 3.0 | 6.0 | 0.00 | 0.04 | 0.04 | 43 | 1010.5 |
| 20260508201421 | 56 | 331 | 2.0 | 2.0 | 0.00 | 0.04 | 0.04 | 41 | 1010.7 |
| 20260508200918 | 57 | 240 | 2.0 | 2.0 | 0.00 | 0.04 | 0.04 | 42 | 1010.7 |
| 20260508200414 | 56 | 233 | 2.0 | 2.0 | 0.00 | 0.04 | 0.04 | 40 | 1011.0 |
| 20260508195904 | 56 | 156 | 1.0 | 2.0 | 0.00 | 0.04 | 0.04 | 42 | 1011.1 |
| 20260508195401 | 54 | 316 | 4.0 | 4.0 | 0.00 | 0.04 | 0.04 | 46 | 1011.1 |
| 20260508194857 | 55 | 204 | 2.0 | 3.0 | 0.00 | 0.04 | 0.04 | 44 | 1011.0 |
| 20260508194354 | 55 | 203 | 1.0 | 1.0 | 0.00 | 0.04 | 0.04 | 46 | 1011.1 |
| 20260508193851 | 56 | 159 | 1.0 | 1.0 | 0.00 | 0.04 | 0.04 | 43 | 1011.0 |
| 20260508193348 | 55 | 314 | 5.0 | 8.0 | 0.00 | 0.04 | 0.04 | 44 | 1011.3 |
| 20260508192844 | 53 | 243 | 2.0 | 3.0 | 0.00 | 0.04 | 0.04 | 49 | 1011.3 |
| 20260508192341 | 54 | 211 | 2.0 | 2.0 | 0.00 | 0.04 | 0.04 | 45 | 1011.4 |
| 20260508191838 | 53 | 226 | 1.0 | 1.0 | 0.00 | 0.04 | 0.04 | 47 | 1011.3 |
| 20260508191336 | 55 | 214 | 1.0 | 2.0 | 0.00 | 0.04 | 0.04 | 43 | 1011.6 |
| 20260508190833 | 54 | 265 | 1.0 | 2.0 | 0.00 | 0.04 | 0.04 | 49 | 1011.6 |
| 20260508190329 | 55 | 188 | 2.0 | 3.0 | 0.00 | 0.04 | 0.04 | 47 | 1011.6 |
| 20260508185826 | 55 | 203 | 0.0 | 0.0 | 0.00 | 0.04 | 0.04 | 46 | 1011.6 |
| 20260508185323 | 53 | 240 | 2.0 | 2.0 | 0.00 | 0.04 | 0.04 | 49 | 1011.5 |
| 20260508184820 | 55 | 251 | 3.0 | 3.0 | 0.00 | 0.04 | 0.04 | 48 | 1011.6 |
| 20260508184318 | 53 | 201 | 2.0 | 4.0 | 0.00 | 0.04 | 0.04 | 52 | 1011.7 |
| 20260508183814 | 52 | 242 | 2.0 | 3.0 | 0.00 | 0.04 | 0.04 | 51 | 1011.7 |
| 20260508183311 | 53 | 202 | 1.0 | 1.0 | 0.00 | 0.04 | 0.04 | 52 | 1011.8 |
| 20260508182806 | 53 | 220 | 1.0 | 1.0 | 0.00 | 0.04 | 0.04 | 52 | 1011.7 |
| 20260508182306 | 54 | 201 | 1.0 | 2.0 | 0.00 | 0.04 | 0.04 | 50 | 1011.8 |
| 20260508181753 | 53 | 189 | 0.0 | 1.0 | 0.00 | 0.04 | 0.04 | 55 | 1012.0 |
| 20260508181250 | 50 | 306 | 3.0 | 4.0 | 0.00 | 0.04 | 0.04 | 57 | 1011.8 |
| 20260508180747 | 50 | 199 | 1.0 | 2.0 | 0.00 | 0.04 | 0.04 | 60 | 1012.0 |
| 20260508180244 | 50 | 253 | 2.0 | 2.0 | 0.00 | 0.04 | 0.04 | 60 | 1011.9 |
| 20260508175741 | 50 | 252 | 1.0 | 2.0 | 0.00 | 0.04 | 0.04 | 57 | 1012.0 |
| 20260508175237 | 51 | 197 | 0.0 | 1.0 | 0.00 | 0.04 | 0.04 | 58 | 1011.9 |
| 20260508174735 | 53 | 179 | 2.0 | 2.0 | 0.00 | 0.04 | 0.04 | 59 | 1012.0 |
| 20260508174232 | 52 | 42 | 1.0 | 2.0 | 0.00 | 0.04 | 0.04 | 57 | 1011.9 |
| 20260508173728 | 51 | 189 | 1.0 | 2.0 | 0.00 | 0.04 | 0.04 | 60 | 1012.2 |
| 20260508173225 | 52 | 276 | 4.0 | 6.0 | 0.00 | 0.04 | 0.04 | 61 | 1012.2 |
| 20260508172722 | 52 | 201 | 1.0 | 1.0 | 0.00 | 0.04 | 0.04 | 62 | 1012.1 |
| 20260508172218 | 52 | 213 | 2.0 | 2.0 | 0.00 | 0.04 | 0.04 | 64 | 1012.5 |
| 20260508171715 | 52 | 176 | 1.0 | 2.0 | 0.00 | 0.04 | 0.04 | 66 | 1012.4 |
| 20260508171211 | 50 | 197 | 1.0 | 2.0 | 0.00 | 0.04 | 0.04 | 67 | 1012.6 |
| 20260508170708 | 49 | 196 | 1.0 | 2.0 | 0.00 | 0.04 | 0.04 | 66 | 1012.4 |
| 20260508170206 | 49 | 262 | 2.0 | 2.0 | 0.00 | 0.04 | 0.04 | 70 | 1012.5 |
| 20260508165703 | 50 | 295 | 3.0 | 7.0 | 0.00 | 0.04 | 0.04 | 69 | 1012.8 |
| 20260508165200 | 50 | 329 | 3.0 | 4.0 | 0.00 | 0.04 | 0.04 | 70 | 1012.4 |
| 20260508164656 | 49 | 210 | 0.0 | 1.0 | 0.00 | 0.04 | 0.04 | 72 | 1012.6 |
| 20260508164153 | 48 | 245 | 1.0 | 2.0 | 0.00 | 0.04 | 0.04 | 71 | 1012.8 |
| 20260508163651 | 47 | 281 | 2.0 | 3.0 | 0.00 | 0.04 | 0.04 | 74 | 1012.7 |
| 20260508163148 | 48 | 237 | 1.0 | 2.0 | 0.00 | 0.04 | 0.04 | 75 | 1012.7 |
| 20260508162643 | 47 | 169 | 1.0 | 2.0 | 0.00 | 0.04 | 0.04 | 73 | 1012.7 |
| 20260508162141 | 47 | 202 | 1.0 | 1.0 | 0.00 | 0.04 | 0.04 | 73 | 1012.8 |
| 20260508161638 | 48 | 154 | 4.0 | 8.0 | 0.00 | 0.04 | 0.04 | 73 | 1012.8 |
| 20260508161135 | 48 | 164 | 1.0 | 1.0 | 0.00 | 0.04 | 0.04 | 76 | 1013.0 |
| 20260508160633 | 47 | 193 | 2.0 | 2.0 | 0.00 | 0.04 | 0.04 | 75 | 1012.9 |
| 20260508160131 | 46 | 239 | 3.0 | 4.0 | 0.00 | 0.04 | 0.04 | 77 | 1012.8 |
| 20260508155628 | 46 | 204 | 1.0 | 1.0 | 0.00 | 0.04 | 0.04 | 78 | 1013.0 |
| 20260508155124 | 44 | 197 | 0.0 | 0.0 | 0.00 | 0.04 | 0.04 | 80 | 1012.8 |
| 20260508154621 | 44 | 202 | 0.0 | 0.0 | 0.00 | 0.04 | 0.04 | 78 | 1013.0 |
| 20260508154118 | 45 | 249 | 2.0 | 3.0 | 0.00 | 0.04 | 0.04 | 79 | 1013.1 |
| 20260508153615 | 44 | 217 | 4.0 | 6.0 | 0.00 | 0.04 | 0.04 | 79 | 1013.1 |
| 20260508153112 | 43 | 207 | 2.0 | 2.0 | 0.00 | 0.04 | 0.04 | 80 | 1013.1 |
| 20260508152609 | 44 | 234 | 1.0 | 1.0 | 0.00 | 0.04 | 0.04 | 83 | 1012.9 |
| 20260508152104 | 45 | 200 | 2.0 | 3.0 | 0.00 | 0.04 | 0.04 | 85 | 1013.0 |
| 20260508151601 | 44 | 223 | 1.0 | 1.0 | 0.00 | 0.04 | 0.04 | 84 | 1013.2 |
| 20260508151058 | 44 | 163 | 1.0 | 1.0 | 0.00 | 0.04 | 0.04 | 86 | 1013.1 |
| 20260508150555 | 42 | 204 | 0.0 | 0.0 | 0.00 | 0.04 | 0.04 | 88 | 1013.1 |
| 20260508150051 | 41 | 178 | 0.0 | 0.0 | 0.00 | 0.04 | 0.04 | 88 | 1013.1 |
| 20260508145548 | 41 | 187 | 0.0 | 0.0 | 0.00 | 0.04 | 0.04 | 88 | 1013.0 |
| 20260508145044 | 41 | 215 | 0.0 | 1.0 | 0.00 | 0.04 | 0.04 | 87 | 1013.2 |
| 20260508144542 | 41 | 210 | 0.0 | 1.0 | 0.00 | 0.04 | 0.04 | 87 | 1013.1 |
| 20260508144039 | 41 | 193 | 0.0 | 0.0 | 0.00 | 0.04 | 0.04 | 88 | 1013.1 |
| 20260508143537 | 41 | 196 | 0.0 | 0.0 | 0.00 | 0.04 | 0.04 | 88 | 1013.0 |
| 20260508143033 | 41 | 201 | 0.0 | 0.0 | 0.00 | 0.04 | 0.04 | 89 | 1013.0 |
| 20260508142530 | 40 | 199 | 0.0 | 0.0 | 0.00 | 0.04 | 0.04 | 88 | 1013.0 |
| 20260508142026 | 40 | 193 | 0.0 | 0.0 | 0.00 | 0.04 | 0.04 | 88 | 1012.8 |
| 20260508141517 | 41 | 214 | 1.0 | 1.0 | 0.00 | 0.04 | 0.04 | 87 | 1013.1 |
| 20260508141015 | 41 | 222 | 2.0 | 2.0 | 0.00 | 0.04 | 0.04 | 89 | 1012.7 |
| 20260508140512 | 41 | 197 | 0.0 | 1.0 | 0.00 | 0.04 | 0.04 | 91 | 1012.5 |
| 20260508140008 | 41 | 185 | 0.0 | 0.0 | 0.00 | 0.04 | 0.04 | 91 | 1012.8 |
| 20260508135504 | 40 | 189 | 0.0 | 0.0 | 0.00 | 0.04 | 0.04 | 92 | 1012.6 |
| 20260508135001 | 40 | 197 | 0.0 | 0.0 | 0.00 | 0.04 | 0.04 | 91 | 1012.4 |
| 20260508134457 | 39 | 195 | 0.0 | 1.0 | 0.00 | 0.04 | 0.04 | 92 | 1012.6 |
| 20260508133954 | 39 | 186 | 0.0 | 0.0 | 0.00 | 0.04 | 0.04 | 93 | 1012.5 |
| 20260508133451 | 39 | 173 | 1.0 | 1.0 | 0.00 | 0.04 | 0.04 | 92 | 1012.9 |
| 20260508132948 | 39 | 205 | 0.0 | 0.0 | 0.00 | 0.04 | 0.04 | 92 | 1013.0 |
| 20260508132446 | 39 | 192 | 0.0 | 0.0 | 0.00 | 0.04 | 0.04 | 92 | 1012.8 |
| 20260508131942 | 39 | 202 | 1.0 | 1.0 | 0.00 | 0.04 | 0.04 | 92 | 1012.9 |
| 20260508131438 | 39 | 201 | 0.0 | 0.0 | 0.00 | 0.04 | 0.04 | 92 | 1012.9 |
| 20260508130935 | 38 | 213 | 0.0 | 1.0 | 0.05 | 0.04 | 0.04 | 92 | 1013.0 |
| 20260508130432 | 38 | 302 | 1.0 | 3.0 | 0.05 | 0.04 | 0.04 | 92 | 1013.3 |
| 20260508125927 | 39 | 216 | 1.0 | 1.0 | 0.07 | 0.03 | 0.03 | 92 | 1013.2 |
| 20260508125424 | 39 | 201 | 0.0 | 0.0 | 0.07 | 0.03 | 0.03 | 91 | 1012.9 |
| 20260508124922 | 39 | 211 | 2.0 | 3.0 | 0.05 | 0.02 | 0.02 | 90 | 1012.9 |
| 20260508124420 | 39 | 198 | 1.0 | 1.0 | 0.05 | 0.02 | 0.02 | 90 | 1012.8 |
| 20260508123917 | 39 | 204 | 0.0 | 1.0 | 0.00 | 0.01 | 0.01 | 89 | 1012.8 |
| 20260508123416 | 39 | 210 | 1.0 | 1.0 | 0.07 | 0.01 | 0.01 | 90 | 1012.8 |
| 20260508122911 | 40 | 194 | 3.0 | 4.0 | 0.07 | 0.01 | 0.01 | 90 | 1012.9 |
| 20260508122409 | 40 | 230 | 2.0 | 3.0 | 0.00 | 0.00 | 0.00 | 89 | 1012.7 |
| 20260508121906 | 40 | 306 | 2.0 | 2.0 | 0.00 | 0.00 | 0.00 | 88 | 1012.5 |
| 20260508121404 | 40 | 203 | 1.0 | 1.0 | 0.00 | 0.00 | 0.00 | 88 | 1012.7 |
| 20260508120901 | 40 | 255 | 1.0 | 1.0 | 0.00 | 0.00 | 0.00 | 87 | 1012.4 |
| 20260508120359 | 40 | 204 | 1.0 | 1.0 | 0.00 | 0.00 | 0.00 | 86 | 1012.0 |
| 20260508115856 | 40 | 169 | 0.0 | 1.0 | 0.00 | 0.00 | 0.00 | 87 | 1012.2 |
| 20260508115354 | 40 | 224 | 1.0 | 2.0 | 0.00 | 0.00 | 0.00 | 86 | 1012.0 |
| 20260508114850 | 40 | 184 | 0.0 | 0.0 | 0.00 | 0.00 | 0.00 | 86 | 1012.1 |
| 20260508114347 | 40 | 183 | 0.0 | 0.0 | 0.00 | 0.00 | 0.00 | 86 | 1011.8 |
| 20260508113844 | 41 | 193 | 0.0 | 0.0 | 0.00 | 0.00 | 0.00 | 85 | 1011.9 |
| 20260508113342 | 41 | 179 | 1.0 | 2.0 | 0.00 | 0.00 | 0.00 | 85 | 1011.8 |
| 20260508112838 | 41 | 168 | 0.0 | 1.0 | 0.00 | 0.00 | 0.00 | 84 | 1011.9 |
| 20260508112336 | 41 | 186 | 0.0 | 0.0 | 0.00 | 0.00 | 0.00 | 83 | 1011.7 |
| 20260508111831 | 41 | 191 | 0.0 | 0.0 | 0.00 | 0.00 | 0.00 | 83 | 1011.6 |
| 20260508111323 | 41 | 184 | 0.0 | 0.0 | 0.00 | 0.00 | 0.00 | 83 | 1011.8 |
| 20260508110820 | 41 | 200 | 0.0 | 0.0 | 0.00 | 0.00 | 0.00 | 82 | 1011.4 |
| 20260508110318 | 41 | 182 | 1.0 | 1.0 | 0.00 | 0.00 | 0.00 | 82 | 1011.3 |
| 20260508105817 | 41 | 169 | 0.0 | 1.0 | 0.00 | 0.00 | 0.00 | 83 | 1011.1 |
| 20260508105314 | 41 | 199 | 2.0 | 2.0 | 0.00 | 0.00 | 0.00 | 84 | 1011.2 |
| 20260508104811 | 41 | 182 | 0.0 | 0.0 | 0.00 | 0.00 | 0.00 | 84 | 1010.8 |
| 20260508104308 | 41 | 177 | 0.0 | 0.0 | 0.00 | 0.00 | 0.00 | 84 | 1011.1 |
| 20260508103805 | 41 | 180 | 0.0 | 1.0 | 0.00 | 0.00 | 0.00 | 84 | 1011.0 |
| 20260508103302 | 40 | 181 | 0.0 | 0.0 | 0.00 | 0.00 | 0.00 | 85 | 1011.3 |
| 20260508102800 | 40 | 177 | 0.0 | 1.0 | 0.00 | 0.00 | 0.00 | 86 | 1011.1 |
| 20260508102258 | 40 | 178 | 0.0 | 1.0 | 0.00 | 0.00 | 0.00 | 87 | 1011.0 |
| 20260508101755 | 40 | 177 | 0.0 | 0.0 | 0.00 | 0.00 | 0.00 | 88 | 1011.0 |
| 20260508101252 | 41 | 183 | 0.0 | 0.0 | 0.00 | 0.00 | 0.00 | 87 | 1011.0 |
| 20260508100749 | 41 | 184 | 0.0 | 0.0 | 0.00 | 0.00 | 0.00 | 86 | 1011.1 |
| 20260508100248 | 41 | 183 | 0.0 | 0.0 | 0.00 | 0.00 | 0.00 | 87 | 1011.1 |
| 20260508095743 | 41 | 183 | 0.0 | 0.0 | 0.00 | 0.00 | 0.00 | 86 | 1011.4 |
| 20260508095241 | 41 | 194 | 0.0 | 0.0 | 0.00 | 0.00 | 0.00 | 86 | 1011.3 |
| 20260508094737 | 41 | 189 | 0.0 | 0.0 | 0.00 | 0.00 | 0.00 | 87 | 1011.2 |
| 20260508094235 | 41 | 182 | 0.0 | 0.0 | 0.00 | 0.00 | 0.00 | 87 | 1011.4 |
| 20260508093732 | 41 | 190 | 2.0 | 3.0 | 0.00 | 0.00 | 0.00 | 88 | 1011.5 |
| 20260508093230 | 41 | 178 | 0.0 | 0.0 | 0.00 | 0.00 | 0.00 | 89 | 1011.6 |
| 20260508092726 | 41 | 193 | 0.0 | 0.0 | 0.00 | 0.00 | 0.00 | 89 | 1011.6 |
| 20260508092225 | 41 | 181 | 0.0 | 0.0 | 0.00 | 0.00 | 0.00 | 90 | 1011.7 |
| 20260508091722 | 40 | 169 | 1.0 | 1.0 | 0.00 | 0.00 | 0.00 | 89 | 1011.5 |
| 20260508091219 | 40 | 177 | 0.0 | 0.0 | 0.00 | 0.00 | 0.00 | 90 | 1011.4 |
| 20260508090717 | 40 | 199 | 0.0 | 1.0 | 0.00 | 0.00 | 0.00 | 90 | 1011.7 |
| 20260508090214 | 40 | 198 | 1.0 | 1.0 | 0.00 | 0.00 | 0.00 | 90 | 1011.7 |
| 20260508085710 | 40 | 183 | 0.0 | 0.0 | 0.00 | 0.00 | 0.00 | 90 | 1011.5 |
| 20260508085207 | 40 | 181 | 0.0 | 0.0 | 0.00 | 0.00 | 0.00 | 90 | 1011.3 |
| 20260508084703 | 40 | 192 | 0.0 | 0.0 | 0.00 | 0.00 | 0.00 | 90 | 1011.6 |
| 20260508084201 | 40 | 178 | 0.0 | 0.0 | 0.00 | 0.00 | 0.00 | 90 | 1011.4 |
| 20260508083658 | 40 | 184 | 0.0 | 0.0 | 0.00 | 0.00 | 0.00 | 90 | 1011.4 |
| 20260508083155 | 40 | 180 | 0.0 | 0.0 | 0.00 | 0.00 | 0.00 | 90 | 1011.4 |
| 20260508082650 | 40 | 186 | 0.0 | 0.0 | 0.00 | 0.00 | 0.00 | 91 | 1011.4 |
| 20260508082148 | 40 | 183 | 1.0 | 1.0 | 0.00 | 0.00 | 0.00 | 91 | 1011.5 |
| 20260508081645 | 40 | 133 | 0.0 | 1.0 | 0.00 | 0.00 | 0.00 | 91 | 1011.4 |
| 20260508081141 | 39 | 187 | 0.0 | 0.0 | 0.00 | 0.00 | 0.00 | 91 | 1011.3 |
| 20260508080638 | 39 | 191 | 0.0 | 1.0 | 0.00 | 0.00 | 0.00 | 92 | 1011.3 |
| 20260508080137 | 39 | 176 | 0.0 | 0.0 | 0.00 | 0.00 | 0.00 | 92 | 1011.3 |
| 20260508075627 | 39 | 185 | 0.0 | 0.0 | 0.00 | 0.00 | 0.00 | 92 | 1011.2 |
| 20260508075124 | 39 | 194 | 0.0 | 0.0 | 0.00 | 0.00 | 0.00 | 92 | 1011.2 |
| 20260508074622 | 39 | 196 | 0.0 | 0.0 | 0.00 | 0.00 | 0.00 | 93 | 1011.2 |
| 20260508074119 | 39 | 186 | 0.0 | 0.0 | 0.00 | 0.00 | 0.00 | 93 | 1011.4 |
| 20260508073616 | 39 | 185 | 0.0 | 0.0 | 0.00 | 0.00 | 0.00 | 93 | 1011.2 |
| 20260508073114 | 39 | 178 | 0.0 | 0.0 | 0.00 | 0.00 | 0.00 | 93 | 1011.2 |
| 20260508072609 | 39 | 182 | 0.0 | 0.0 | 0.00 | 0.00 | 0.00 | 94 | 1011.3 |
| 20260508072106 | 39 | 186 | 0.0 | 0.0 | 0.00 | 0.00 | 0.00 | 94 | 1011.3 |
| 20260508071604 | 39 | 179 | 0.0 | 0.0 | 0.00 | 0.00 | 0.00 | 94 | 1011.4 |
| 20260508071103 | 38 | 186 | 0.0 | 0.0 | 0.00 | 0.00 | 0.00 | 94 | 1011.4 |
| 20260508070559 | 38 | 188 | 0.0 | 0.0 | 0.00 | 0.00 | 0.00 | 94 | 1011.6 |
| 20260508070058 | 38 | 183 | 0.0 | 0.0 | 0.00 | 0.00 | 0.00 | 95 | 1011.5 |
| 20260508065554 | 38 | 176 | 0.0 | 0.0 | 0.00 | 0.00 | 0.00 | 95 | 1011.7 |
| 20260508065047 | 37 | 208 | 0.0 | 1.0 | 0.00 | 0.00 | 0.00 | 95 | 1011.6 |